Location: Berg
(48.5667°N, 13.9833°E)
Time: 00:22:34
(UTC+00:00)

Cosmos 1825 - Pass Details

Date: 09 April 2020
Orbit: 502 x 509 km, 82.5° (Epoch: 04 June)

Event Time Altitude Azimuth Distance (km) Brightness Sun altitude
Rises 20:00:33 0° 356° (N) 2,630 6.5 -20.4°
Reaches altitude 10° 20:02:47 10° 4° (N) 1,738 5.3 -20.7°
Enters shadow 20:05:50 37° 51° (NE) 804 3.0 -21.1°
